Regional Weather Roundup
Issued by NWS

Home | Current Version | Previous Version | Text Only | Print | Product List | Glossary On
Versions: 1 2 3 4 5 6 7 8 9 10 11 12 13 14 15 16 17 18 19 20 21 22 23 24 25 26 27 28 29 30 31 32 33 34 35 36 37 38 39 40 41 42 43 44 45 46 47 48 49 50
000
ASUS43 KDTX 180310
RWRMI
MICHIGAN HOURLY REGIONAL WEATHER ROUNDUP
NATIONAL WEATHER SERVICE DETROIT/PONTIAC MI
1000 PM EST WED DEC 17 2014

NOTE: "FAIR" INDICATES FEW OR NO CLOUDS BELOW 12,000 FEET WITH NO
SIGNIFICANT WEATHER AND/OR OBSTRUCTION TO VISIBILITY.

MIZ047>049-052>055-059>063-066>070-074>076-081>083-180400-
SOUTHEAST LOWER MICHIGAN

CITY           SKY/WX    TMP DP  RH WIND       PRES   REMARKS
ADRIAN         CLOUDY    29  19  66 NW9       30.18S
ALMA           CLOUDY    28  24  86 W13       30.13S
ANN ARBOR      CLOUDY    28  18  66 W9        30.15S
BAD AXE        CLOUDY    28  26  93 W12G18    30.06S
DETROIT CITY   CLOUDY    30  18  60 W12G20    30.14R
DETROIT        CLOUDY    28  18  64 W13       30.16R
FLINT          CLOUDY    29  19  66 W13       30.12S
GROSSE ILE     CLOUDY    28  19  69 W14G21    30.15R
HILLSDALE      CLOUDY    28  21  76 NW13G22   30.15F
HOWELL         CLOUDY    27  20  75 W9G18     30.13S

CITY           SKY/WX    TMP DP  RH WIND       PRES   REMARKS
JACKSON        CLOUDY    26  19  74 W8        30.16S
LAMBERTVILLE   CLOUDY    32  21  64 NW8       30.19R
LANSING        CLOUDY    27  19  72 W9        30.16S
LAPEER         NOT AVBL
MASON          CLOUDY    27  19  73 W13G18    30.15S
MONROE         CLOUDY    28  19  69 NW13G22   30.16R
MT. CLEMENS    MOCLDY    28  19  68 W14       30.10R
PONTIAC        CLOUDY    26  17  68 W17       30.10S
PORT HOPE        N/A     30  25  81 NW10      30.04R
PORT HURON     CLOUDY    27  21  80 W7        30.10R
TRI CITIES     CLOUDY    29  23  78 W13       30.11R
YPSILANTI      CLOUDY    31  17  56 W13       30.16R
$$
MIZ043>046-050>051-056>058-064>065-071>073-077>080-180400-
SOUTHWEST LOWER MICHIGAN

CITY           SKY/WX    TMP DP  RH WIND       PRES   REMARKS
BATTLE CREEK   CLOUDY    29  19  66 W9        30.18S
BENTON HARBOR  CLOUDY    28  20  71 NW8       30.23S
BIG RAPIDS     CLOUDY    28  27  98 NW8       30.11S FOG
COLDWATER      CLOUDY    28  20  72 NW10G18   30.18S
HOLLAND        CLOUDY    31  21  66 NW12      30.21R
GRAND RAPIDS   CLOUDY    28  20  71 W9        30.17S
KALAMAZOO      CLOUDY    29  20  69 NW10      30.20R
MARSHALL       CLOUDY    27  19  73 W9G17     30.17S
MUSKEGON       FLURRIES  31  22  69 NW8       30.19S
$$
MIZ016>042-180400-
NORTHERN LOWER MICHIGAN

CITY           SKY/WX    TMP DP  RH WIND       PRES   REMARKS
ALPENA         CLOUDY    26  22  84 NW7       30.07R
BEAVER ISLAND  CLOUDY    27  24  88 N7        30.13R
BELLAIRE       CLOUDY    29  26  88 NW6       30.12R
CADILLAC       CLOUDY    27  24  89 NW10G16   30.07S
CHARLEVOIX     CLOUDY    28  25  89 N14       30.14R
FRANKFORT      CLOUDY    31  27  86 NW9       30.14S
GAYLORD        CLOUDY    23  22  96 NW8       30.06R
GRAYLING       CLOUDY    28  25  89 NW8       30.07R
HARBOR SPRINGS CLOUDY    26  23  88 N5        30.10R
HOUGHTON LAKE  CLOUDY    27  24  89 NW10      30.06S
MANISTEE       CLOUDY    30  25  80 NW10G16   30.15S
OSCODA         CLOUDY    27  25  90 NW5       30.06R
PELLSTON       CLOUDY    26  21  81 N8        30.11R
TRAVERSE CITY  CLOUDY    31  26  82 N10       30.11S
$$
MIZ007>008-015-180400-
EASTERN UPPER MICHIGAN

CITY           SKY/WX    TMP DP  RH WIND       PRES   REMARKS
KINROSS        CLOUDY    21  19  93 N6        30.10R
MACKINAC ISLAN CLOUDY    24  22  93 N12G18    30.10R
NEWBERRY       CLOUDY    22  21  94 N12       30.13R
S. S. MARIE    CLOUDY    21  14  74 N9        30.12R
$$
MIZ004>006-011>014-085-180400-
CENTRAL UPPER MICHIGAN

CITY           SKY/WX    TMP DP  RH WIND       PRES   REMARKS
MANISTIQUE     CLOUDY    27  25  93 N9        30.15R
ESCANABA       CLOUDY    28  21  74 N9G16     30.17S
MENOMINEE      CLOUDY    27  19  74 N8        30.20R
SAWYER-GWINN   CLOUDY    25  23  93 N16G24    30.17R
$$
MIZ001>003-009>011-084-180400-
WESTERN UPPER MICHIGAN

CITY           SKY/WX    TMP DP  RH WIND       PRES   REMARKS
IRON MOUNTAIN  CLOUDY    24  20  84 N10       30.18S
HOUGHTON       MOCLDY    22  16  78 NE7       30.24S
COPPER HARBOR    N/A     27  19  72 E15       30.27R
IRONWOOD       CLOUDY    21  19  93 NE3       30.23S
$$

ABBREVIATIONS USED IN REMARKS
   TC - TEMPERATURE IN CELSIUS
  WCI - WIND CHILL INDEX
   HX - HEAT INDEX
  VSB - VISIBILITY



USA.gov is the U.S. government's official web portal to all federal, state and local government web resources and services.